Погода в Ельцовке

Россия / Алтайский край     53°03′34″N   85°07′58″E
темп.,
°C
ветер,
м/с
пор.,
м/с
влажн.,
%
обл.,
%
осадки,
мм/ч
давл.,
гПа
погр.,
м
9 мая, вс
вс901:00+11зюз49545 0.0 1018150
04:00+10зюз496025 0.0 1017125
07:00+10зюз496389 0.0 1017199
10:00+16зсз46495 0.0 1016715
13:00+18ссз56450 0.0 10151459
16:00+18ссз57400 0.0 10151644
19:00+15с66435 0.0 10151395
22:00+9св712494 0.0 1018623
10 мая, пн
пн1001:00+6св511590 0.0 1019494
04:00+4св411660 0.0 1019400
07:00+4св612691 0.0 1019460
10:00+10всв79565 0.0 1018905
13:00+14всв810352 0.0 10161444
16:00+17всв8102752 0.0 10142033
19:00+15св811374 0.0 10141803
22:00+9всв410540 0.0 1015265
11 мая, вт
вт1101:00+7св511599 0.0 1015311
04:00+5св5126872 0.0 1014297
07:00+5ссв41069100 0.0 1015287
10:00+11св57489 0.0 10141068
13:00+15ссв56375 0.0 10141877
16:00+17ссв453166 0.0 10132477
19:00+17с3534100 0.0 10132346
22:00+11с8146195 0.0 1016584
12 мая, ср
ср1201:00+9с61073100 0.1 1016411
04:00+8с5876100 0.3 1017373
07:00+7с5877100 0.6 1018384
10:00+8с4674100 0.9 1018510
13:00+11с3565100 2.4 10181191
16:00+13сз575479 0.4 10171296
19:00+13ссз685764 1.3 10181244
22:00+8ссз37806 0.3 1020127
13 мая, чт
чт1301:00+7с48859 0.4 1020126
04:00+5св339114 0.0 102040
07:00+6св22866 0.0 102194
10:00+11ссв22645 0.0 1021724
13:00+15всв214750 0.1 10201745
16:00+14вюв215184 0.4 10191169
19:00+14ссв115379 0.4 1019858
22:00+10ююз22667 0.0 102015